KQ4HEI Weather Reports


time (UTC)temp
C
wind
direction
speed
KPH
gust
KPH
rain 1hr
cm
rain 24hr
cm
rain mn
cm
humidity
%
barometer
mb
20260505195431 30 242 8.0 14.5 0.00 0.00 0.00 47 1013.4
20260505193428 30 149 8.0 11.3 0.00 0.00 0.00 48 1013.6
20260505191428 30 221 6.4 11.3 0.00 0.00 0.00 47 1014.0
20260505185428 28 187 6.4 11.3 0.00 0.00 0.00 50 1014.0
20260505183517 30 230 6.4 9.7 0.00 0.00 0.00 46 1014.1
20260505183428 30 230 6.4 9.7 0.00 0.00 0.00 46 1014.1
20260505181429 30 242 8.0 11.3 0.00 0.00 0.00 47 1014.4
20260505175429 29 225 4.8 8.0 0.00 0.00 0.00 47 1014.3
20260505173428 28 208 6.4 9.7 0.00 0.00 0.00 47 1014.5
20260505171429 27 169 4.8 8.0 0.00 0.00 0.00 51 1014.7
20260505165428 28 149 8.0 12.9 0.00 0.00 0.00 49 1014.8
20260505163428 28 163 6.4 9.7 0.00 0.00 0.00 50 1014.7
20260505161428 28 161 6.4 12.9 0.00 0.00 0.00 50 1014.9
20260505123428 16 127 1.6 3.2 0.00 0.00 0.00 88 1014.7
20260505121428 12 0 0.0 0.0 0.00 0.00 0.00 99 1014.6
20260505115429 8 0 0.0 0.0 0.00 0.00 0.00 99 1014.6
20260505113428 7 0 0.0 0.0 0.00 0.00 0.00 99 1014.1
20260505111428 7 0 0.0 0.0 0.00 0.00 0.00 99 1014.0
20260505101429 7 0 0.0 0.0 0.00 0.00 0.00 99 1014.1
20260505095429 7 0 0.0 0.0 0.00 0.00 0.00 99 1014.1
20260505093430 7 0 0.0 0.0 0.00 0.00 0.00 99 1013.2
20260505091430 7 0 0.0 0.0 0.00 0.00 0.00 99 1013.1
20260505085429 7 0 0.0 0.0 0.00 0.00 0.00 99 1013.1
20260505083430 7 0 0.0 0.0 0.00 0.00 0.00 99 1013.1
20260505081430 7 0 0.0 0.0 0.00 0.00 0.00 99 1012.9
20260505075430 7 0 0.0 0.0 0.00 0.00 0.00 99 1013.1
20260505073429 7 0 0.0 0.0 0.00 0.00 0.00 99 1013.1
20260505071429 7 0 0.0 0.0 0.00 0.00 0.00 99 1013.2
20260505065429 8 0 0.0 0.0 0.00 0.00 0.00 99 1013.4
20260505063430 8 0 0.0 0.0 0.00 0.00 0.00 99 1013.7
20260505061429 8 0 0.0 0.0 0.00 0.00 0.00 99 1013.6
20260505055429 8 0 0.0 0.0 0.00 0.00 0.00 99 1013.9
20260505053429 8 0 0.0 0.0 0.00 0.00 0.00 96 1013.6
20260505051429 10 0 0.0 0.0 0.00 0.00 0.00 97 1013.6
20260505041429 10 0 0.0 0.0 0.00 0.00 0.00 95 1014.1
20260505035430 11 0 0.0 0.0 0.00 0.00 0.00 94 1014.4
20260505033430 11 0 0.0 0.0 0.00 0.00 0.00 91 1014.6
20260505031429 12 0 0.0 0.0 0.00 0.00 0.00 91 1014.5
20260505025429 12 0 0.0 0.0 0.00 0.00 0.00 89 1014.6
20260505023429 13 0 0.0 0.0 0.00 0.00 0.00 86 1014.6
20260505021429 13 0 0.0 0.0 0.00 0.00 0.00 82 1014.6
20260505015429 14 0 0.0 0.0 0.00 0.00 0.00 78 1014.4
20260505013429 15 0 0.0 0.0 0.00 0.00 0.00 73 1014.6
20260505011429 16 0 0.0 0.0 0.00 0.00 0.00 66 1014.4
20260505005429 17 0 0.0 0.0 0.00 0.00 0.00 61 1014.4
20260505003429 19 0 0.0 0.0 0.00 0.00 0.00 56 1014.0
20260505001429 21 0 0.0 0.0 0.00 0.00 0.00 50 1014.1
20260504233429 23 239 6.4 8.0 0.00 0.00 0.00 42 1013.7
20260504210131 29 233 9.7 11.3 0.00 0.00 0.00 29 1013.2
20260504205132 29 132 4.8 8.0 0.00 0.00 0.00 29 1013.2
20260504204131 30 210 8.0 11.3 0.00 0.00 0.00 30 1013.3
20260504203132 29 162 6.4 9.7 0.00 0.00 0.00 28 1013.5
20260504202131 30 216 3.2 6.4 0.00 0.00 0.00 26 1013.8